{"data":{"norad_id":60593,"intl_designator":"2024-150L","name":"STARLINK-32161","alt_names":[],"object_type":"PAYLOAD","status":"ACTIVE","operator":null,"country":"US","launch_date":"2024-08-20","launch_site_code":"AFETR","launch_vehicle":null,"mission":null,"orbit_class":"UNKNOWN","rcs_meters":null,"size_class":null,"mass_kg":null,"dimensions":null,"purposes":["comms"],"wikipedia_slug":null,"has_3d_model":false,"image_url":null,"decayed_at":null,"tle_current":{"epoch":"2026-05-25T04:13:16.300704Z","epoch_age_seconds":56519,"freshness":"FRESH","line1":"1 60593U 24150L   26145.17588311  .00000658  00000+0  30621-4 0  9991","line2":"2 60593  53.1599 310.9117 0001084  93.2095 266.9031 15.34389147 99684","mean_motion":15.34389147,"eccentricity":0.0001084,"inclination_deg":53.1599,"raan_deg":310.9117,"arg_perigee_deg":93.2095,"mean_anomaly_deg":266.9031,"bstar":3.0621e-5,"rev_number":9968,"period_min":93.84842188277,"perigee_km":461.99394722164,"apogee_km":463.47704837917,"semimajor_km":6840.8724978004,"source":"CELESTRAK","updated_at":"2026-05-25T13:38:19.280402Z"}}}